Weather History for EGNS - October, 2012

Change the Weather History Date:

Saturday, October 13, 2012

  Actual Average (EGOV) Record (EGOV)
Temperature  
Mean Temperature 48 °F -  
Max Temperature 54 °F 52 °F 66 °F (1996)
Min Temperature 42 °F 45 °F 42 °F (1997)
Degree Days  
Heating Degree Days 17    
Moisture  
Dew Point 41 °F    
Average Humidity 75    
Maximum Humidity 93    
Minimum Humidity 46    
Precipitation  
Precipitation 0.01 in - - ()
Sea Level Pressure  
Sea Level Pressure 29.63 in    
Wind  
Wind Speed 5 mph ()    
Max Wind Speed 12 mph    
Max Gust Speed -    
Visibility 7.1 miles    
Events      
Averages and records for this station are not official NWS values.
T = Trace of Precipitation, MM = Missing Value Source: Averaged Metar Reports

Daily Weather History Graph

Daily Weather History Graph

Search for Another Location

Airport or City:

Trip Planner

Search our weather history database for the weather conditions in past years. The results will help you decide how hot, cold, wet, or windy it might be!

Date:

Astronomy

Oct. 13, 2012 Rise Set
Actual Time 7:43 AM BST 6:25 PM BST
Civil Twilight 7:07 AM BST 7:00 PM BST
Nautical Twilight 6:26 AM BST 7:41 PM BST
Astronomical Twilight 5:45 AM BST 8:22 PM BST
Moon 5:00 AM BST (10/13) 5:11 PM BST (10/13)
Length of Visible Light 11h 53m
Length of Day
10h 41m
Waning Crescent, 6% of the Moon is Illuminated
Oct 13
Waning Crescent
Oct 15
New
Oct 22
First Quarter
Oct 29
Full
Nov 7
Last Quarter

Hourly Weather History & Observations

Time (BST) Temp. Windchill Dew Point Humidity Pressure Visibility Wind Dir Wind Speed Gust Speed Precip Events Conditions
12:50 AM 43 °F - 41 °F 89% 29.64 in 19 mi NNW 3.5 mph - -   Partly Cloudy
12:50 AM 42.8 °F 41.1 °F 41.0 °F 93% 29.62 in 6.2 mi NNW 3.5 mph - N/A   Partly Cloudy
1:50 AM 44.6 °F 43.1 °F 41.0 °F 87% 29.62 in 6.2 mi Variable 3.5 mph - N/A   Partly Cloudy
2:50 AM 44.6 °F 42.2 °F 41.0 °F 87% 29.62 in 6.2 mi NNW 4.6 mph - N/A   Partly Cloudy
3:50 AM 44 °F - 42 °F 88% 29.62 in 19 mi NNW 3.5 mph - -   Mostly Cloudy
3:50 AM 44.6 °F 43.1 °F 41.0 °F 87% 29.62 in 6.2 mi NNW 3.5 mph - N/A   Partly Cloudy
4:50 AM 42.8 °F 38.6 °F 41.0 °F 93% 29.62 in 6.2 mi NNW 6.9 mph - N/A   Partly Cloudy
5:20 AM 42.8 °F 39.3 °F 41.0 °F 93% 29.62 in 6.2 mi NNW 5.8 mph - N/A   Partly Cloudy
5:50 AM 42.8 °F 40.1 °F 41.0 °F 93% 29.62 in 6.2 mi NNW 4.6 mph - N/A   Partly Cloudy
6:20 AM 42.8 °F 39.3 °F 39.2 °F 87% 29.62 in 6.2 mi NNW 5.8 mph - N/A   Partly Cloudy
6:50 AM 43 °F - 40 °F 85% 29.63 in 19 mi NNW 4.6 mph - -   Scattered Clouds
6:50 AM 42.8 °F 40.1 °F 39.2 °F 87% 29.62 in 6.2 mi NNW 4.6 mph - N/A   Partly Cloudy
7:20 AM 42.8 °F 39.3 °F 41.0 °F 93% 29.62 in 6.2 mi NW 5.8 mph - N/A   Partly Cloudy
7:50 AM 42.8 °F 40.1 °F 39.2 °F 87% 29.62 in 6.2 mi NW 4.6 mph - N/A   Partly Cloudy
8:20 AM 42.8 °F 40.1 °F 39.2 °F 87% 29.62 in 6.2 mi NNW 4.6 mph - N/A   Partly Cloudy
8:50 AM 44.6 °F 43.1 °F 41.0 °F 87% 29.62 in 6.2 mi NNW 3.5 mph - N/A   Partly Cloudy
9:20 AM 46.4 °F 45.2 °F 41.0 °F 81% 29.62 in 6.2 mi West 3.5 mph - N/A   Partly Cloudy
9:50 AM 50 °F - 42 °F 66% 29.65 in 31 mi WNW 6.9 mph - -   Scattered Clouds
9:50 AM 50.0 °F - 42.8 °F 76% 29.62 in 6.2 mi WNW 6.9 mph - N/A   Partly Cloudy
10:20 AM 50.0 °F - 42.8 °F 76% 29.65 in 6.2 mi WNW 8.1 mph - N/A   Partly Cloudy
10:50 AM 51.8 °F - 42.8 °F 71% 29.65 in 6.2 mi WNW 8.1 mph - N/A   Partly Cloudy
11:20 AM 51.8 °F - 42.8 °F 71% 29.65 in 6.2 mi WNW 8.1 mph - N/A   Partly Cloudy
11:50 AM 51.8 °F - 41.0 °F 67% 29.65 in 6.2 mi WNW 9.2 mph - N/A   Partly Cloudy
12:20 PM 51.8 °F - 41.0 °F 67% 29.65 in 6.2 mi WNW 10.4 mph - N/A   Partly Cloudy
12:50 PM 51 °F - 42 °F 63% 29.66 in 31 mi WNW 9.2 mph - -   Partly Cloudy
12:50 PM 51.8 °F - 42.8 °F 71% 29.65 in 6.2 mi WNW 9.2 mph - N/A   Scattered Clouds
1:20 PM 51.8 °F - 41.0 °F 67% 29.65 in 6.2 mi WNW 9.2 mph - N/A   Partly Cloudy
1:50 PM 51.8 °F - 39.2 °F 62% 29.65 in 6.2 mi WNW 8.1 mph - N/A   Partly Cloudy
2:20 PM 53.6 °F - 41.0 °F 62% 29.62 in 6.2 mi West 11.5 mph - N/A   Partly Cloudy
2:50 PM 53.6 °F - 41.0 °F 62% 29.62 in 6.2 mi WNW 10.4 mph - N/A   Partly Cloudy
3:20 PM 53.6 °F - 41.0 °F 62% 29.62 in 6.2 mi West 10.4 mph - N/A   Partly Cloudy
3:50 PM 53 °F - 38 °F 46% 29.64 in 31 mi WNW 10.4 mph - -   Scattered Clouds
3:50 PM 53.6 °F - 39.2 °F 58% 29.62 in 6.2 mi WNW 10.4 mph - N/A   Partly Cloudy
4:20 PM 53.6 °F - 37.4 °F 54% 29.62 in 6.2 mi WNW 9.2 mph - N/A   Partly Cloudy
4:50 PM 53.6 °F - 39.2 °F 58% 29.62 in 6.2 mi West 10.4 mph - N/A   Partly Cloudy
5:20 PM 51.8 °F - 41.0 °F 67% 29.62 in 6.2 mi West 8.1 mph - N/A   Partly Cloudy
5:50 PM 50.0 °F - 41.0 °F 71% 29.62 in 6.2 mi WSW 6.9 mph - N/A   Partly Cloudy
6:20 PM 50.0 °F - 41.0 °F 71% 29.62 in 6.2 mi West 4.6 mph - N/A   Partly Cloudy
6:50 PM 48 °F - 40 °F 65% 29.64 in 25 mi West 3.5 mph - -   Scattered Clouds
6:50 PM 48.2 °F - 39.2 °F 71% 29.62 in 6.2 mi Variable 3.5 mph - N/A   Partly Cloudy
7:20 PM 48.2 °F - 41.0 °F 76% 29.62 in 6.2 mi Variable 3.5 mph - N/A   Partly Cloudy
7:50 PM 46.4 °F - 41.0 °F 81% 29.62 in 6.2 mi Variable 2.3 mph - N/A   Partly Cloudy
8:50 PM 48.2 °F - 39.2 °F 71% 29.62 in 6.2 mi West 5.8 mph - N/A   Partly Cloudy
9:50 PM 48 °F - 41 °F 70% 29.63 in 25 mi WNW 3.5 mph - -   Partly Cloudy
9:50 PM 48.2 °F - 41.0 °F 76% 29.62 in 6.2 mi Variable 3.5 mph - N/A   Partly Cloudy
10:50 PM 46.4 °F 44.3 °F 41.0 °F 81% 29.62 in 6.2 mi WNW 4.6 mph - N/A   Partly Cloudy
11:50 PM 48.2 °F - 41.0 °F 76% 29.59 in 6.2 mi Variable 2.3 mph - N/A   Partly Cloudy